Zurück zum Katalog

SL-12 R/B(2)

AktivGEO
NORAD 17875·ROCKET BODY·🇷🇺 Russia

Gestartet Aug 24, 1984 von Baikonur Cosmodrome

Loading…

TLE

AktuellSource: Space-Track

Epoche: Sep 14, 2026, 18:14 UTC

1 17875U 84090F   26257.76028088 -.00000004  00000-0  00000-0 0  9995
2 17875   7.5750 305.9028 0015428 174.1712   2.4381  1.01263554157776

Verfolge SL-12 R/B(2) in Echtzeit mit AllMySat

Download on the App Store